• In Deutschland
  • Länderverzeichnis
  • Für 7 Tage
  • Wassertemperatur
  • Satellitenkarten
  • Wetterkarte
  • Widgets
  • user-avatar
    Anmelden

    Stündliche Wetter Prutz

    Heute, 17 August, Donnerstag

    Zeit Temperatur Niederschläge Wind Luftdruck Luftfeuchtigkeit
    00:00 +12°C° 0,1 mm 1 m/S 638 mmHg 90%
    01:00 +12°C° 0 mm 1 m/S 638 mmHg 89%
    02:00 +12°C° 0 mm 1 m/S 638 mmHg 88%
    03:00 +12°C° 0 mm 1 m/S 637 mmHg 88%
    04:00 +11°C° 0 mm 1 m/S 637 mmHg 88%
    05:00 +13°C° 0 mm 1 m/S 638 mmHg 85%
    06:00 +14°C° 0 mm 1 m/S 638 mmHg 81%
    07:00 +16°C° 0 mm 1 m/S 639 mmHg 76%
    08:00 +19°C° 0 mm 1 m/S 640 mmHg 68%
    09:00 +20°C° 0 mm 1 m/S 640 mmHg 60%
    10:00 +20°C° 0 mm 0 m/S 641 mmHg 52%
    11:00 +23°C° 0,1 mm 1 m/S 641 mmHg 50%
    12:00 +23°C° 0,1 mm 1 m/S 641 mmHg 49%
    13:00 +24°C° 0,1 mm 1 m/S 641 mmHg 47%
    14:00 +23°C° 0,2 mm 1 m/S 640 mmHg 51%
    15:00 +23°C° 0,2 mm 1 m/S 640 mmHg 56%
    16:00 +22°C° 0,2 mm 1 m/S 640 mmHg 60%
    17:00 +21°C° 0,3 mm 1 m/S 639 mmHg 69%
    18:00 +19°C° 0,3 mm 1 m/S 639 mmHg 77%
    19:00 +18°C° 0,3 mm 1 m/S 638 mmHg 85%
    20:00 +16°C° 0,1 mm 1 m/S 638 mmHg 87%
    21:00 +15°C° 0,1 mm 1 m/S 638 mmHg 89%
    22:00 +14°C° 0,1 mm 1 m/S 638 mmHg 92%
    23:00 +13°C° 0 mm 1 m/S 638 mmHg 91%

    Morgen, 18 August, Freitag

    Zeit Temperatur Niederschläge Wind Luftdruck Luftfeuchtigkeit
    00:00 +13°C° 0 mm 1 m/S 638 mmHg 91%
    01:00 +13°C° 0 mm 1 m/S 638 mmHg 91%
    02:00 +13°C° 0 mm 2 m/S 638 mmHg 91%
    03:00 +13°C° 0 mm 2 m/S 638 mmHg 91%
    04:00 +13°C° 0 mm 2 m/S 637 mmHg 91%
    05:00 +14°C° 0 mm 2 m/S 638 mmHg 89%
    06:00 +15°C° 0 mm 2 m/S 638 mmHg 87%
    07:00 +16°C° 0 mm 2 m/S 638 mmHg 85%
    08:00 +18°C° 0 mm 2 m/S 639 mmHg 76%
    09:00 +20°C° 0 mm 2 m/S 639 mmHg 66%
    10:00 +23°C° 0 mm 2 m/S 640 mmHg 57%
    11:00 +24°C° 0 mm 2 m/S 639 mmHg 54%
    12:00 +25°C° 0 mm 2 m/S 639 mmHg 52%
    13:00 +25°C° 0 mm 2 m/S 639 mmHg 49%
    14:00 +24°C° 0,8 mm 2 m/S 639 mmHg 55%
    15:00 +24°C° 0,8 mm 2 m/S 638 mmHg 61%
    16:00 +23°C° 0,8 mm 2 m/S 637 mmHg 67%
    17:00 +20°C° 1,2 mm 2 m/S 637 mmHg 73%
    18:00 +19°C° 1,2 mm 2 m/S 637 mmHg 80%
    19:00 +18°C° 1,2 mm 1 m/S 636 mmHg 87%
    20:00 +16°C° 2 mm 1 m/S 636 mmHg 90%
    21:00 +15°C° 2 mm 1 m/S 636 mmHg 93%
    22:00 +14°C° 2 mm 1 m/S 636 mmHg 96%
    23:00 +14°C° 3,6 mm 1 m/S 636 mmHg 97%

    übermorgen, 19 August, Samstag

    Zeit Temperatur Niederschläge Wind Luftdruck Luftfeuchtigkeit
    00:00 +14°C° 3,6 mm 2 m/S 636 mmHg 97%
    01:00 +13°C° 3,6 mm 2 m/S 636 mmHg 97%
    02:00 +13°C° 4,9 mm 2 m/S 636 mmHg 97%
    03:00 +12°C° 4,9 mm 2 m/S 635 mmHg 97%
    04:00 +10°C° 4,9 mm 2 m/S 635 mmHg 97%
    05:00 +10°C° 2,1 mm 2 m/S 635 mmHg 97%
    06:00 +10°C° 2,1 mm 2 m/S 635 mmHg 96%
    07:00 +9°C° 2,1 mm 2 m/S 636 mmHg 96%
    08:00 +10°C° 1 mm 2 m/S 636 mmHg 94%
    09:00 +10°C° 1 mm 2 m/S 636 mmHg 92%
    10:00 +12°C° 1 mm 2 m/S 636 mmHg 90%
    11:00 +13°C° 0,3 mm 2 m/S 637 mmHg 85%
    12:00 +14°C° 0,3 mm 2 m/S 637 mmHg 79%
    13:00 +15°C° 0,3 mm 2 m/S 637 mmHg 74%
    14:00 +15°C° 0,3 mm 2 m/S 637 mmHg 72%
    15:00 +15°C° 0,3 mm 2 m/S 637 mmHg 70%
    16:00 +16°C° 0,3 mm 2 m/S 637 mmHg 68%
    17:00 +14°C° 0,3 mm 2 m/S 637 mmHg 75%
    18:00 +13°C° 0,3 mm 2 m/S 637 mmHg 81%
    19:00 +12°C° 0,3 mm 2 m/S 637 mmHg 88%
    20:00 +10°C° 0,1 mm 2 m/S 637 mmHg 90%
    21:00 +9°C° 0,1 mm 2 m/S 637 mmHg 93%
    22:00 +9°C° 0,1 mm 1 m/S 637 mmHg 95%
    23:00 +9°C° 0 mm 1 m/S 637 mmHg 94%

    20 August, Sonntag

    Zeit Temperatur Niederschläge Wind Luftdruck Luftfeuchtigkeit
    00:00 +9°C° 0 mm 1 m/S 637 mmHg 94%
    01:00 +8°C° 0 mm 1 m/S 637 mmHg 94%
    02:00 +8°C° 0 mm 1 m/S 637 mmHg 94%
    03:00 +8°C° 0 mm 1 m/S 637 mmHg 94%
    04:00 +7°C° 0 mm 1 m/S 636 mmHg 95%
    05:00 +8°C° 0 mm 1 m/S 637 mmHg 93%
    06:00 +8°C° 0 mm 1 m/S 637 mmHg 91%
    07:00 +9°C° 0 mm 1 m/S 638 mmHg 89%
    08:00 +9°C° 0 mm 2 m/S 638 mmHg 79%
    09:00 +12°C° 0 mm 2 m/S 639 mmHg 70%
    10:00 +14°C° 0 mm 2 m/S 639 mmHg 60%
    11:00 +15°C° 0 mm 2 m/S 639 mmHg 53%
    12:00 +16°C° 0 mm 2 m/S 640 mmHg 47%
    13:00 +17°C° 0 mm 2 m/S 640 mmHg 40%
    14:00 +17°C° 0 mm 2 m/S 640 mmHg 41%
    15:00 +16°C° 0 mm 3 m/S 639 mmHg 41%
    16:00 +16°C° 0 mm 3 m/S 639 mmHg 42%
    17:00 +14°C° 0 mm 2 m/S 639 mmHg 52%
    18:00 +13°C° 0 mm 2 m/S 639 mmHg 62%
    19:00 +10°C° 0 mm 2 m/S 638 mmHg 73%
    20:00 +9°C° 0 mm 1 m/S 638 mmHg 78%
    21:00 +8°C° 0 mm 1 m/S 638 mmHg 83%
    22:00 +7°C° 0 mm 1 m/S 638 mmHg 88%
    23:00 +7°C° 0 mm 1 m/S 638 mmHg 88%

    21 August, Montag

    Zeit Temperatur Niederschläge Wind Luftdruck Luftfeuchtigkeit
    00:00 +6°C° 0 mm 1 m/S 638 mmHg 88%
    01:00 +6°C° 0 mm 1 m/S 638 mmHg 88%
    02:00 +6°C° 0 mm 1 m/S 638 mmHg 85%
    03:00 +6°C° 0 mm 1 m/S 637 mmHg 82%
    04:00 +5°C° 0 mm 1 m/S 637 mmHg 79%
    05:00 +7°C° 0 mm 1 m/S 638 mmHg 72%
    06:00 +8°C° 0 mm 1 m/S 638 mmHg 65%
    07:00 +10°C° 0 mm 1 m/S 639 mmHg 58%
    08:00 +12°C° 0 mm 1 m/S 640 mmHg 49%
    09:00 +15°C° 0 mm 1 m/S 640 mmHg 40%
    10:00 +18°C° 0 mm 1 m/S 641 mmHg 31%
    11:00 +18°C° 0 mm 2 m/S 641 mmHg 31%
    12:00 +19°C° 0 mm 2 m/S 641 mmHg 31%
    13:00 +20°C° 0 mm 2 m/S 641 mmHg 31%
    14:00 +20°C° 0 mm 2 m/S 640 mmHg 34%
    15:00 +20°C° 0 mm 2 m/S 640 mmHg 37%
    16:00 +19°C° 0 mm 2 m/S 640 mmHg 40%
    17:00 +17°C° 0 mm 2 m/S 639 mmHg 51%
    18:00 +15°C° 0 mm 2 m/S 639 mmHg 62%
    19:00 +13°C° 0 mm 1 m/S 638 mmHg 73%
    20:00 +12°C° 0 mm 1 m/S 638 mmHg 76%
    21:00 +11°C° 0 mm 1 m/S 638 mmHg 78%
    22:00 +10°C° 0 mm 1 m/S 637 mmHg 81%
    23:00 +10°C° 0 mm 1 m/S 637 mmHg 78%

    22 August, Dienstag

    Zeit Temperatur Niederschläge Wind Luftdruck Luftfeuchtigkeit
    00:00 +10°C° 0 mm 1 m/S 637 mmHg 76%
    01:00 +10°C° 0 mm 1 m/S 637 mmHg 73%
    02:00 +10°C° 0 mm 1 m/S 637 mmHg 72%
    03:00 +10°C° 0 mm 1 m/S 636 mmHg 70%
    04:00 +10°C° 0 mm 1 m/S 636 mmHg 68%
    05:00 +11°C° 0 mm 1 m/S 636 mmHg 65%
    06:00 +13°C° 0 mm 1 m/S 637 mmHg 63%
    07:00 +14°C° 0 mm 1 m/S 637 mmHg 60%
    08:00 +16°C° 0 mm 1 m/S 638 mmHg 53%
    09:00 +20°C° 0 mm 1 m/S 638 mmHg 46%
    10:00 +22°C° 0 mm 1 m/S 639 mmHg 40%
    11:00 +23°C° 0 mm 1 m/S 639 mmHg 39%
    12:00 +24°C° 0 mm 1 m/S 639 mmHg 38%
    13:00 +24°C° 0 mm 1 m/S 639 mmHg 37%
    14:00 +24°C° 0,1 mm 2 m/S 638 mmHg 40%
    15:00 +24°C° 0,1 mm 2 m/S 638 mmHg 42%
    16:00 +23°C° 0,1 mm 2 m/S 637 mmHg 44%
    17:00 +21°C° 0,2 mm 1 m/S 637 mmHg 55%
    18:00 +19°C° 0,2 mm 1 m/S 636 mmHg 66%
    19:00 +15°C° 0,2 mm 1 m/S 635 mmHg 77%
    20:00 +14°C° 0,1 mm 1 m/S 635 mmHg 79%
    21:00 +13°C° 0,1 mm 1 m/S 635 mmHg 81%
    22:00 +12°C° 0,1 mm 1 m/S 635 mmHg 83%
    23:00 +12°C° 0 mm 1 m/S 634 mmHg 83%
    Mehr zeigen